Location: CARMA
(37.2805°N, 118.1419°W)
Time: 09:32:34
(UTC-07:00)

Daily predictions for brighter satellites

Satellite Brightness Start Highest point End
(mag) Time Altitude Azimuth Time Altitude Azimuth Time Altitude Azimuth
ATLAS CENTAUR R/B 4.5 20:10:38 10° SSE 20:15:33 29° E 20:26:28 10° NE
Cosmos 371 Rocket 3.3 20:18:48 10° S 20:23:34 65° ESE 20:28:21 10° NNE
Cosmos 968 Rocket 4.3 20:18:45 10° NNW 20:23:54 56° WSW 20:29:00 10° S
SL-16 R/B 4.3 20:24:03 10° NE 20:25:20 11° NE 20:26:38 10° ENE
GPS 2-04 Rocket1 2.9 20:24:52 10° W 20:29:03 71° S 20:33:19 10° E
Cosmos 2278 3.7 20:24:02 10° NNW 20:29:43 81° ENE 20:35:24 10° SSE
Cosmos 2151 Rocket 3.8 20:25:22 10° N 20:29:45 53° E 20:34:04 10° SSE
Cosmos 724 4.4 20:28:33 10° SSW 20:34:19 81° WNW 20:40:09 10° NNE
Lacrosse 4 Rocket 3.8 20:31:42 10° NW 20:35:18 24° WSW 20:38:52 10° SSW
Cosmos 1459 Rocket 4.0 20:29:47 10° S 20:35:49 89° E 20:41:54 10° N
Cosmos 332 Rocket 3.9 20:32:30 10° SSW 20:37:17 85° WNW 20:42:09 10° NNE
Okean 3 3.9 20:33:15 10° SSE 20:37:20 44° E 20:41:25 10° NNE
Cosmos 2173 Rocket 4.2 20:35:20 10° S 20:41:42 83° W 20:48:07 10° N
Cosmos 2061 Rocket 4.1 20:35:45 10° S 20:42:09 83° E 20:48:31 10° N
Cosmos 1300 Rocket 3.7 20:41:21 10° N 20:45:40 55° E 20:49:55 10° SSE
Cosmos 1939 Rocket 3.0 20:42:00 10° SSE 20:46:05 86° W 20:50:13 10° NNW
Okean 1 4.0 20:45:12 10° SSE 20:48:51 34° E 20:52:33 10° NNE
ATLAS 3B R/B 2.8 20:45:04 10° SSW 20:52:16 71° ESE 20:59:13 10° NE
Shenzhou-11 Module 3.4 20:51:17 10° W 20:54:05 37° NNW 20:56:54 10° ENE
Cosmos 44 Rocket 3.4 20:49:05 10° NNW 20:54:17 83° ENE 20:59:04 12° SSE
Spot 2 Rocket 3.5 20:52:03 10° SSE 20:57:03 68° ENE 21:02:03 10° N
ISS -3.9 20:56:10 10° SW 20:59:24 60° SE 21:02:37 10° ENE
Cosmos 1500 3.1 20:57:00 10° N 21:00:52 80° E 21:04:43 10° S
SJ-11-01 4.3 20:56:19 10° SSE 21:01:02 88° W 21:05:47 10° NNW
Resurs 1-3 3.8 20:58:29 10° S 21:02:51 71° WSW 21:07:14 10° NNW
Cosmos 2016 Rocket 4.1 20:56:58 10° S 21:03:02 80° W 21:09:12 10° N
Cosmos 1697 Rocket 2.9 20:57:24 10° NNW 21:03:04 74° WSW 21:08:41 10° SSE
Tsikada Rocket 4.1 21:01:25 10° N 21:07:47 62° E 21:13:43 12° SSE
Meteor 1-18 Rocket 4.3 21:02:20 10° S 21:08:05 73° E 21:13:59 10° NNE
YAOGAN 6 4.3 21:05:46 10° SSW 21:09:09 33° W 21:12:32 10° NNW
Cosmos 1812 4.3 21:06:10 10° SSW 21:09:44 37° W 21:13:20 10° N
Cosmos 2360 Rocket 4.5 21:10:32 10° NE 21:11:17 10° NE 21:12:03 10° NE
Cosmos 1570 Rocket 4.0 21:07:14 10° S 21:12:29 63° ESE 21:17:46 10° NNE
Cosmos 1725 Rocket 4.0 21:06:32 10° S 21:12:42 88° E 21:18:55 10° N
Cosmos 1980 Rocket 2.2 21:09:16 10° NNW 21:14:56 79° ENE 21:19:18 18° SSE
Cosmos 1666 3.5 21:12:18 10° NNE 21:15:52 34° ENE 21:17:28 24° ESE
Cosmos 1763 Rocket 4.4 21:14:02 18° SE 21:16:45 28° E 21:21:11 10° NE
Cosmos 1743 3.6 21:14:01 10° NNE 21:17:30 32° ENE 21:18:54 24° ESE
Abrixas rocket 2.5 21:16:09 10° SSW 21:19:10 39° SE 21:21:10 18° ENE
USA 238 DEB 4.2 21:14:57 10° SW 21:21:43 64° NW 21:28:38 10° NNE
USA 238 4.2 21:15:03 10° SW 21:21:50 64° NW 21:28:44 10° NNE
Cosmos 304 Rocket 3.8 21:20:29 10° SSW 21:25:18 85° WNW 21:30:09 10° NNE
Cosmos 1340 Rocket 4.4 21:27:06 18° E 21:27:06 18° E 21:29:46 10° NE
ERS-2 4.1 21:24:06 10° SSW 21:27:13 26° W 21:30:22 10° NW
H-2A R/B 2.4 21:24:49 23° SE 21:27:26 44° ENE 21:32:09 10° N
Helios 1B rocket 4.3 21:27:13 10° NE 21:29:08 15° E 21:29:08 15° E
Iridium 2 4.2 21:28:41 31° SE 21:29:49 39° E 21:33:24 10° NNE
Meteor 2-4 Rocket 4.3 21:27:43 24° SE 21:30:04 34° E 21:34:59 10° NNE
Cosmos 1455 Rocket 4.4 21:29:03 10° NNE 21:32:28 22° ENE 21:33:14 21° E
ATLAS CENTAUR R/B 1.7 21:28:28 10° NNW 21:33:04 80° WSW 21:35:40 27° SSE
deb Kosmos-1763 4.2 21:31:56 29° SSE 21:33:28 50° ESE 21:37:05 10° NNE
Cosmos 2346 Rocket 4.4 21:27:36 10° N 21:33:52 81° E 21:38:32 19° S
BREEZE-M DEB (TANK) 2.4 21:32:20 10° NW 21:34:40 71° NE 21:36:09 32° ESE
Cosmos 1242 Rocket 3.0 21:32:17 10° N 21:35:49 44° ENE 21:36:35 37° ESE
Tiangong 2 0.9 21:34:41 10° WSW 21:37:50 81° SSE 21:39:02 34° ENE
DNEPR-1 R/B 4.3 21:34:37 10° SW 21:38:43 54° NW 21:43:17 10° NNE
Cosmos 2208 Rocket 4.0 21:33:57 10° SSW 21:39:09 84° WNW 21:44:22 10° NNE
Cosmos 1975 Rocket 2.9 21:36:41 23° S 21:39:16 70° E 21:43:34 10° NNE
Cosmos 1378 Rocket 4.4 21:36:28 10° SSW 21:40:39 49° W 21:44:51 10° N
Okean 1 Rocket 3.5 21:36:34 10° NNW 21:40:51 60° W 21:43:53 19° S
Cosmos 1898 Rocket 3.8 21:38:25 10° N 21:43:37 54° ENE 21:45:49 32° SE
Meteor 1-13 Rocket 4.4 21:41:22 23° SSE 21:45:01 58° E 21:50:50 10° NNE
Resurs 01 Rocket 3.6 21:41:26 10° SSW 21:45:01 24° W 21:48:38 10° NW
Cosmos 1975 3.0 21:43:57 10° NNW 21:48:00 72° W 21:49:50 31° S
Cosmos 1814 Rocket 4.1 21:46:23 28° SSE 21:48:54 52° ESE 21:54:02 10° NNE
ERS-1 Rocket 3.0 21:47:59 34° SE 21:50:01 61° ENE 21:54:59 10° N
MetOp-A 4.1 21:50:08 26° S 21:53:14 81° WSW 21:58:37 10° NNW
Cosmos 292 Rocket 4.3 21:55:18 37° ESE 21:55:28 37° ESE 21:59:50 10° NE
NOSS 3-2 (A) 4.0 21:49:53 10° SW 21:55:37 59° NW 22:02:00 10° NNE
CSL-04 DEB 4.4 21:54:50 42° SSE 21:56:12 88° E 22:00:23 10° NNW
Centaur D-1AR AC-36 4.1 21:25:11 10° WSW 21:56:18 33° SSW 21:59:27 26° SSE
Cosmos 2233 Rocket 4.3 21:50:31 10° SSW 21:56:36 66° W 22:02:45 10° N
Atlas Centaur 2 2.6 21:55:37 10° WSW 21:57:28 21° SW 21:57:28 21° SW
NOSS 3-2 (C) 3.5 21:53:07 10° SW 21:58:58 78° WNW 22:05:26 10° NNE
Cosmos 1544 Rocket 4.0 21:55:08 10° N 21:59:23 44° E 21:59:55 42° E
Meteor 2-20 4.4 21:54:47 10° N 22:00:55 67° E 22:03:28 36° SSE
Cosmos 2322 Rocket 2.3 21:58:18 10° NNW 22:03:52 61° ENE 22:05:40 41° SE
GPS 2-04 Rocket1 3.4 22:04:35 10° W 22:08:27 42° SSW 22:08:27 42° SSW
Cosmos 2150 Rocket 4.5 22:04:34 10° N 22:09:46 46° ENE 22:10:55 40° ESE
SL-16 R/B 2.2 22:04:45 10° NNW 22:10:27 74° ENE 22:12:11 45° SE
Cosmos 990 Rocket 3.9 22:07:10 10° NNW 22:12:23 71° ENE 22:13:38 51° SE
Cosmos 1536 Rocket 3.9 22:12:43 46° E 22:12:43 46° E 22:16:46 10° NNE
SPOT 5 2.6 22:12:31 56° ESE 22:13:00 60° ENE 22:17:25 10° N
ARGOS 3.8 22:12:17 25° SSW 22:15:12 49° W 22:20:27 10° NNW
Helios 1A 2.8 22:17:11 72° ESE 22:17:27 76° ENE 22:21:36 10° N
Landsat 7 4.0 22:18:33 51° E 22:19:04 54° ENE 22:23:42 10° N
SJ 16-02 3.1 22:15:45 10° NNE 22:19:00 20° ENE 22:19:00 20° ENE
CZ-2C R/B 4.1 22:22:06 29° E 22:22:45 30° ENE 22:27:28 10° N
Cosmos 2298 Rocket 3.9 22:23:45 10° NNW 22:29:05 80° ENE 22:29:54 63° SE
Shenzhou-11 Module 4.1 22:27:58 10° WNW 22:30:09 26° NNW 22:30:09 26° NNW
CENTAUR R/B 2.3 22:29:22 28° SSW 22:32:40 83° ESE 22:39:21 10° NE
Cosmos 2084 4.2 22:30:13 14° SW 22:33:47 51° NW 22:37:49 10° NNE
Aureole 2 Rocket 4.4 22:31:44 10° N 22:33:00 21° N 22:33:00 21° N
Cosmos 2034 Rocket 3.8 22:34:17 52° SSE 22:35:51 76° E 22:42:01 10° N
ISS -0.8 22:33:50 10° WNW 22:36:08 17° NNW 22:38:25 10° NNE
Terra 2.0 22:37:46 54° ENE 22:37:46 54° ENE 22:42:22 10° N
Lacrosse 5 rocket 3.6 22:35:23 10° N 22:38:13 17° NNE 22:39:13 16° NE
Cosmos 1513 Rocket 4.4 22:36:21 43° SSW 22:38:32 82° W 22:44:41 10° N
USA 32 4.5 22:34:35 10° NNW 22:39:43 56° W 22:41:10 42° SW
Cosmos 1464 Rocket 4.2 22:39:11 34° SSW 22:42:07 69° W 22:48:31 10° N
Gbstr 26 Del rocket 4.5 22:36:36 10° NW 22:44:44 73° SW 22:46:59 50° SSE
CARTOSAT-1 3.7 22:46:04 66° NNE 22:46:04 66° NNE 22:49:52 10° N
Cosmos 1937 Rocket 3.9 22:42:39 10° NNW 22:47:38 52° WSW 22:48:17 49° SW
Meteor 1-23 Rocket 4.3 22:48:54 53° SSW 22:50:10 74° W 22:55:45 10° N
SL-19 R/B 4.4 22:49:47 62° S 22:50:52 87° WSW 22:57:15 10° NNW
Cosmos 2360 Rocket 2.1 22:50:39 10° NNW 22:56:18 72° ENE 22:56:35 70° E
Okean 2 4.3 22:57:35 45° NNE 22:57:35 45° NNE 23:00:33 10° N
Cosmos 841 Rocket 4.4 22:57:56 28° WSW 23:00:16 44° WNW 23:05:18 10° N
Cosmos 540 Rocket 3.4 23:01:20 75° W 23:01:32 76° WNW 23:06:43 10° NNE
SPOT 1/Viking Rocket 4.2 23:02:01 42° WSW 23:02:38 44° W 23:07:34 10° NNW
Cosmos 2219 Rocket 3.7 22:58:23 10° N 23:02:48 23° ENE 23:03:26 23° ENE
Helios 1B rocket 3.7 23:01:24 10° N 23:05:11 35° WNW 23:05:28 35° W
IGS 5A 4.3 23:06:21 47° NW 23:06:21 47° NW 23:09:37 10° NNW
CZ-4C R/B 4.0 22:59:47 10° NNW 23:06:18 35° NE 23:09:26 26° E
Cosmos 1634 Rocket 4.2 23:06:55 53° E 23:06:55 53° E 23:13:00 10° NNE
H-2A R/B 4.0 23:05:27 15° WSW 23:07:04 18° W 23:10:23 10° NW
Cosmos 2333 Rocket 3.7 23:04:31 10° N 23:09:02 24° ENE 23:09:45 23° ENE
CZ-2C R/B 2.8 23:05:50 10° NNE 23:10:59 65° ENE 23:10:59 65° ENE
Cosmos 1025 Rocket 3.9 23:13:39 47° N 23:13:39 47° N 23:16:49 10° N
COSMOS 2428 3.5 23:07:22 10° N 23:12:40 39° ENE 23:12:46 39° ENE
Cosmos 372 Rocket 4.2 23:16:51 10° NNW 23:21:16 65° N 23:21:16 65° N
H-2A R/B 4.4 23:34:44 16° NE 23:34:44 16° NE 23:36:26 10° NNE
Cosmos 1125 Rocket 3.9 23:33:41 10° NNW 23:38:01 60° NW 23:38:01 60° NW
Cosmos 2322 3.9 23:33:50 10° NNW 23:38:57 63° WNW 23:38:57 63° WNW
Cosmos 2297 Rocket 4.1 23:42:12 19° ENE 23:42:12 19° ENE 23:44:17 10° NE
Cosmos 2227 Rocket 3.9 23:44:46 22° ENE 23:44:46 22° ENE 23:47:16 10° NE
Cosmos 2322 Rocket 4.2 23:44:03 10° WNW 23:47:17 16° W 23:47:29 16° W
Cosmos 2237 Rocket 3.6 23:46:24 10° N 23:51:17 28° ENE 23:51:26 28° ENE
SL-16 R/B 4.4 23:51:22 10° WNW 23:53:47 13° W 23:54:04 13° W
